Location: Berlin
(42.3812°N, 71.6370°W)
Time: 21:53:37
(UTC+00:00)

USA 234 - Pass Details

Date: 15 November 2025
Orbit: 1100 x 1107 km, 123.0° (Epoch: 02 December)

Event Time Altitude Azimuth Distance (km) Brightness Sun altitude
Rises 11:02:23 0° 151° (SSE) 3,914 7.0 -6.9°
Reaches altitude 10° 11:04:59 10° 158° (SSE) 2,958 6.2 -6.4°
Maximum altitude 11:11:12 45° 230° (SW) 1,460 3.8 -5.4°
Drops below altitude 10° 11:17:26 10° 302° (WNW) 2,969 4.9 -4.3°
Enters shadow 11:19:07 - 306° (NW) 3,577 5.3 -4.0°
